Ottumwa, IA

8:45 AM CST on December 04, 2016 (GMT -0600)
Ottumwa Industrial

Weather History for KOTM - October, 2010

Change the Weather History Date:

Thursday, October 21, 2010

  Actual Average Record
Temperature  
Mean Temperature 50 °F 51 °F  
Max Temperature 62 °F 62 °F 87 °F (1947)
Min Temperature 38 °F 40 °F 18 °F (1930)
Degree Days  
Heating Degree Days 15 14  
Month to date heating degree days 185 237  
Since 1 July heating degree days 270 358  
Cooling Degree Days 0 0  
Month to date cooling degree days 7 9  
Year to date cooling degree days 1105 936  
Moisture  
Dew Point 30 °F    
Average Humidity 49    
Maximum Humidity 70    
Minimum Humidity 27    
Precipitation  
Precipitation T in 0.09 in 1.25 in (1900)
Month to date precipitation 0.03 1.93  
Year to date precipitation 49.40 32.42  
Sea Level Pressure  
Sea Level Pressure 30.04 in    
Wind  
Wind Speed 7 mph (WNW)    
Max Wind Speed 17 mph    
Max Gust Speed 21 mph    
Visibility 10 miles    
Events      
T = Trace of Precipitation, MM = Missing Value Source: NWS Daily Summary

Daily Weather History Graph

Daily Weather History Graph

Search for Another Location

Airport or City:

Trip Planner

Search our weather history database for the weather conditions in past years. The results will help you decide how hot, cold, wet, or windy it might be!

Date:

Astronomy

Oct. 21, 2010 Rise Set
Actual Time 7:28 AM CDT 6:20 PM CDT
Civil Twilight 7:00 AM CDT 6:48 PM CDT
Nautical Twilight 6:27 AM CDT 7:20 PM CDT
Astronomical Twilight 5:56 AM CDT 7:51 PM CDT
Moon 5:20 PM CDT (10/21) 6:08 AM CDT (10/21)
Length of Visible Light 11h 48m
Length of Day
10h 52m
Waxing Gibbous, 98% of the Moon is Illuminated
Oct 21
Waxing Gibbous
Oct 22
Full
Oct 30
Last Quarter
Nov 5
New
Nov 13
First Quarter

Hourly Weather History & Observations

Time (CDT) Temp. Windchill Dew Point Humidity Pressure Visibility Wind Dir Wind Speed Gust Speed Precip Events Conditions
12:53 AM 52.0 °F - 35.1 °F 53% 29.93 in 10.0 mi NW 12.7 mph - N/A   Clear
1:53 AM 45.0 °F 41.8 °F 34.0 °F 65% 29.95 in 10.0 mi West 5.8 mph - N/A   Clear
2:53 AM 44.1 °F 39.0 °F 32.0 °F 63% 29.96 in 10.0 mi WNW 9.2 mph - N/A   Clear
3:53 AM 43.0 °F 38.2 °F 30.0 °F 60% 29.98 in 10.0 mi West 8.1 mph - N/A   Clear
4:53 AM 39.0 °F 33.4 °F 30.9 °F 73% 29.99 in 10.0 mi WNW 8.1 mph - N/A   Clear
5:53 AM 42.1 °F 36.6 °F 30.0 °F 62% 30.00 in 10.0 mi WNW 9.2 mph - N/A   Clear
6:53 AM 39.9 °F 33.9 °F 30.0 °F 68% 30.02 in 9.0 mi NW 9.2 mph - 0.00 in   Unknown
7:53 AM 39.9 °F 34.5 °F 30.0 °F 68% 30.04 in 10.0 mi West 8.1 mph - 0.00 in   Clear
8:53 AM 45.0 °F 40.6 °F 30.9 °F 58% 30.07 in 10.0 mi WNW 8.1 mph - N/A   Clear
9:53 AM 50.0 °F - 30.9 °F 48% 30.09 in 10.0 mi WNW 8.1 mph - N/A   Clear
10:53 AM 55.0 °F - 30.0 °F 38% 30.08 in 10.0 mi NW 15.0 mph 20.7 mph N/A   Clear
11:53 AM 57.0 °F - 28.9 °F 34% 30.08 in 10.0 mi NNW 12.7 mph - N/A   Clear
12:53 PM 57.9 °F - 30.0 °F 35% 30.07 in 10.0 mi WNW 10.4 mph 17.3 mph N/A   Clear
1:53 PM 60.1 °F - 28.0 °F 30% 30.06 in 10.0 mi Variable 6.9 mph 16.1 mph N/A   Clear
2:53 PM 61.0 °F - 27.0 °F 27% 30.04 in 10.0 mi WNW 11.5 mph - N/A   Clear
3:53 PM 61.0 °F - 27.0 °F 27% 30.03 in 10.0 mi NW 8.1 mph - N/A   Clear
4:53 PM 60.1 °F - 26.1 °F 27% 30.04 in 10.0 mi WNW 8.1 mph - N/A   Clear
5:53 PM 54.0 °F - 28.9 °F 38% 30.04 in 10.0 mi WNW 5.8 mph - N/A   Clear
6:53 PM 48.0 °F - 28.9 °F 48% 30.05 in 10.0 mi Calm Calm - N/A   Clear
7:53 PM 44.1 °F - 28.9 °F 55% 30.06 in 10.0 mi Calm Calm - N/A   Clear
8:53 PM 48.0 °F - 27.0 °F 44% 30.06 in 10.0 mi Calm Calm - N/A   Clear
9:53 PM 39.9 °F - 30.9 °F 70% 30.08 in 10.0 mi Calm Calm - N/A   Clear
10:53 PM 43.0 °F - 28.0 °F 56% 30.08 in 10.0 mi Calm Calm - N/A   Clear
11:53 PM 41.0 °F - 32.0 °F 70% 30.08 in 10.0 mi Calm Calm - N/A   Clear